| time (UTC) | temp C | wind direction | speed KPH | gust KPH | rain 1hr cm | rain 24hr cm | rain mn cm | humidity % | barometer mb |
| 20260831150024 | 22 | 275 | 6.4 | 16.1 | 0.00 | 0.84 | 0.56 | 67 | 1017.7 |
| 20260831145518 | 22 | 284 | 3.2 | 17.7 | 0.00 | 0.84 | 0.56 | 68 | 1017.7 |
| 20260831145025 | 22 | 282 | 4.8 | 17.7 | 0.00 | 0.84 | 0.56 | 69 | 1017.7 |
| 20260831144519 | 22 | 245 | 6.4 | 16.1 | 0.00 | 0.84 | 0.56 | 68 | 1017.7 |
| 20260831144025 | 22 | 274 | 4.8 | 16.1 | 0.00 | 0.84 | 0.56 | 68 | 1017.7 |
| 20260831143520 | 22 | 266 | 6.4 | 17.7 | 0.00 | 0.84 | 0.56 | 68 | 1017.7 |
| 20260831143026 | 22 | 276 | 4.8 | 12.9 | 0.00 | 0.84 | 0.56 | 68 | 1017.7 |
| 20260831142520 | 22 | 281 | 3.2 | 12.9 | 0.00 | 0.84 | 0.56 | 70 | 1017.7 |
| 20260831142056 | 22 | 277 | 6.4 | 20.9 | 0.00 | 0.84 | 0.56 | 71 | 1017.7 |
| 20260831141521 | 21 | 266 | 4.8 | 19.3 | 0.00 | 0.84 | 0.56 | 72 | 1017.6 |
| 20260831141057 | 21 | 273 | 6.4 | 20.9 | 0.00 | 0.84 | 0.56 | 74 | 1017.6 |
| 20260831140521 | 21 | 257 | 4.8 | 20.9 | 0.00 | 0.84 | 0.56 | 76 | 1017.6 |
| 20260831140015 | 21 | 280 | 3.2 | 20.9 | 0.00 | 0.84 | 0.56 | 79 | 1017.7 |
| 20260831135552 | 21 | 290 | 3.2 | 8.0 | 0.00 | 0.84 | 0.56 | 76 | 1017.6 |
| 20260831135017 | 21 | 275 | 4.8 | 12.9 | 0.00 | 0.84 | 0.56 | 74 | 1016.9 |
| 20260831134522 | 21 | 285 | 3.2 | 16.1 | 0.00 | 0.84 | 0.56 | 73 | 1016.7 |
| 20260831134017 | 22 | 277 | 4.8 | 17.7 | 0.00 | 0.84 | 0.56 | 73 | 1016.7 |
| 20260831133523 | 21 | 281 | 4.8 | 16.1 | 0.00 | 0.84 | 0.56 | 74 | 1016.7 |
| 20260831133117 | 21 | 276 | 4.8 | 14.5 | 0.00 | 0.84 | 0.56 | 75 | 1016.6 |
| 20260831132524 | 21 | 280 | 3.2 | 17.7 | 0.00 | 0.84 | 0.56 | 77 | 1016.6 |
| 20260831132018 | 21 | 299 | 3.2 | 6.4 | 0.00 | 0.84 | 0.56 | 79 | 1017.2 |
| 20260831131525 | 20 | 289 | 3.2 | 8.0 | 0.00 | 0.84 | 0.56 | 82 | 1017.6 |
| 20260831131019 | 20 | 282 | 3.2 | 11.3 | 0.00 | 0.84 | 0.56 | 84 | 1017.6 |
| 20260831130525 | 20 | 281 | 3.2 | 12.9 | 0.00 | 0.84 | 0.56 | 85 | 1017.6 |
| 20260831130020 | 20 | 278 | 3.2 | 11.3 | 0.00 | 0.84 | 0.56 | 85 | 1017.6 |
| 20260831125525 | 20 | 296 | 1.6 | 8.0 | 0.00 | 0.84 | 0.56 | 84 | 1017.6 |
| 20260831125020 | 20 | 303 | 1.6 | 4.8 | 0.00 | 0.84 | 0.56 | 83 | 1017.7 |
| 20260831124556 | 21 | 281 | 3.2 | 9.7 | 0.00 | 0.84 | 0.56 | 82 | 1017.7 |
| 20260831124020 | 21 | 291 | 1.6 | 4.8 | 0.00 | 0.84 | 0.56 | 83 | 1017.7 |
| 20260831123557 | 20 | 296 | 1.6 | 4.8 | 0.08 | 0.84 | 0.56 | 83 | 1017.7 |
| 20260831123021 | 20 | 296 | 0.0 | 4.8 | 0.08 | 0.84 | 0.56 | 87 | 1017.6 |
| 20260831122545 | 20 | 301 | 1.6 | 4.8 | 0.08 | 0.84 | 0.56 | 87 | 1017.6 |
| 20260831122022 | 19 | 323 | 0.0 | 1.6 | 0.08 | 0.84 | 0.56 | 89 | 1017.6 |
| 20260831121516 | 19 | 305 | 0.0 | 3.2 | 0.08 | 0.84 | 0.56 | 89 | 1017.6 |
| 20260831121022 | 18 | 293 | 1.6 | 8.0 | 0.10 | 0.84 | 0.56 | 90 | 1017.6 |
| 20260831120516 | 18 | 278 | 3.2 | 8.0 | 0.10 | 0.84 | 0.56 | 91 | 1017.6 |
| 20260831120106 | 18 | 282 | 3.2 | 16.1 | 0.10 | 0.84 | 0.56 | 92 | 1017.6 |
| 20260831115530 | 18 | 296 | 3.2 | 4.8 | 0.10 | 0.84 | 0.56 | 93 | 1017.6 |
| 20260831115024 | 18 | 307 | 1.6 | 12.9 | 0.10 | 0.84 | 0.56 | 93 | 1017.6 |
| 20260831114518 | 18 | 295 | 3.2 | 9.7 | 0.10 | 0.84 | 0.56 | 91 | 1017.6 |
| 20260831114023 | 19 | 309 | 1.6 | 8.0 | 0.10 | 0.84 | 0.56 | 87 | 1017.6 |
| 20260831113517 | 19 | 311 | 1.6 | 3.2 | 0.03 | 0.76 | 0.48 | 86 | 1017.6 |
| 20260831113024 | 19 | 285 | 1.6 | 4.8 | 0.03 | 0.76 | 0.48 | 85 | 1017.6 |
| 20260831112518 | 19 | 293 | 1.6 | 8.0 | 0.03 | 0.76 | 0.48 | 86 | 1017.6 |
| 20260831112024 | 19 | 308 | 1.6 | 8.0 | 0.03 | 0.76 | 0.48 | 85 | 1017.6 |
| 20260831111519 | 19 | 304 | 0.0 | 3.2 | 0.03 | 0.76 | 0.48 | 84 | 1017.6 |
| 20260831111125 | 20 | 295 | 1.6 | 11.3 | 0.00 | 0.74 | 0.46 | 82 | 1017.6 |
| 20260831110519 | 20 | 290 | 3.2 | 8.0 | 0.00 | 0.74 | 0.46 | 80 | 1017.6 |
| 20260831110026 | 20 | 0.0 | 0.0 | 0.00 | 0.74 | 0.46 | 80 | 1016.6 | |
| 20260831105913 | 21 | 273 | 4.8 | 14.5 | 0.00 | 0.74 | 0.46 | 73 | 1016.6 |
| 20260831105026 | 21 | 293 | 3.2 | 8.0 | 0.00 | 0.74 | 0.46 | 73 | 1016.7 |
| 20260831104852 | 21 | 269 | 4.8 | 12.9 | 0.00 | 0.74 | 0.46 | 72 | 1016.7 |
| 20260831104057 | 21 | 261 | 6.4 | 20.9 | 0.00 | 0.74 | 0.46 | 73 | 1016.6 |
| 20260831103521 | 21 | 275 | 3.2 | 12.9 | 0.00 | 0.74 | 0.46 | 75 | 1016.6 |
| 20260831103015 | 21 | 287 | 3.2 | 16.1 | 0.00 | 0.74 | 0.46 | 75 | 1017.4 |
| 20260831102521 | 20 | 266 | 3.2 | 16.1 | 0.00 | 0.74 | 0.46 | 77 | 1017.6 |
| 20260831102015 | 20 | 279 | 3.2 | 16.1 | 0.00 | 0.74 | 0.46 | 78 | 1017.6 |
| 20260831101521 | 20 | 272 | 3.2 | 9.7 | 0.00 | 0.74 | 0.46 | 79 | 1017.6 |
| 20260831101046 | 19 | 288 | 3.2 | 9.7 | 0.00 | 0.74 | 0.46 | 82 | 1017.6 |
| 20260831100622 | 18 | 290 | 1.6 | 11.3 | 0.00 | 0.74 | 0.46 | 83 | 1017.5 |
| 20260831100016 | 19 | 291 | 3.2 | 8.0 | 0.00 | 0.74 | 0.46 | 83 | 1017.6 |
| 20260831095522 | 19 | 288 | 3.2 | 9.7 | 0.00 | 0.74 | 0.46 | 81 | 1017.6 |
| 20260831095017 | 19 | 276 | 3.2 | 12.9 | 0.00 | 0.74 | 0.46 | 82 | 1017.6 |
| 20260831094523 | 19 | 289 | 3.2 | 8.0 | 0.00 | 0.74 | 0.46 | 82 | 1017.6 |
| 20260831094017 | 19 | 292 | 3.2 | 16.1 | 0.00 | 0.74 | 0.46 | 82 | 1017.6 |
| 20260831093523 | 18 | 289 | 3.2 | 9.7 | 0.00 | 0.74 | 0.46 | 83 | 1017.5 |
| 20260831093017 | 18 | 318 | 1.6 | 8.0 | 0.00 | 0.74 | 0.46 | 84 | 1017.5 |
| 20260831092523 | 18 | 280 | 3.2 | 12.9 | 0.00 | 0.74 | 0.46 | 85 | 1017.5 |
| 20260831092018 | 18 | 306 | 1.6 | 8.0 | 0.00 | 0.74 | 0.46 | 86 | 1017.5 |
| 20260831091523 | 18 | 310 | 1.6 | 8.0 | 0.00 | 0.74 | 0.46 | 86 | 1017.5 |
| 20260831091017 | 18 | 286 | 3.2 | 9.7 | 0.00 | 0.74 | 0.46 | 86 | 1017.5 |
| 20260831090523 | 18 | 295 | 3.2 | 12.9 | 0.00 | 0.74 | 0.46 | 86 | 1017.5 |
| 20260831090017 | 18 | 265 | 3.2 | 16.1 | 0.00 | 0.74 | 0.46 | 87 | 1017.5 |
| 20260831085524 | 18 | 283 | 3.2 | 9.7 | 0.00 | 0.74 | 0.46 | 87 | 1017.5 |
| 20260831085018 | 18 | 292 | 4.8 | 11.3 | 0.00 | 0.74 | 0.46 | 88 | 1017.5 |
| 20260831084525 | 17 | 300 | 3.2 | 8.0 | 0.00 | 0.74 | 0.46 | 89 | 1017.5 |
| 20260831084018 | 17 | 257 | 1.6 | 8.0 | 0.00 | 0.74 | 0.46 | 91 | 1017.5 |
| 20260831083554 | 17 | 279 | 3.2 | 9.7 | 0.00 | 0.74 | 0.46 | 92 | 1017.5 |
| 20260831083018 | 17 | 324 | 0.0 | 1.6 | 0.00 | 0.74 | 0.46 | 92 | 1017.5 |
| 20260831082524 | 17 | 306 | 1.6 | 3.2 | 0.00 | 0.74 | 0.46 | 93 | 1017.5 |
| 20260831082018 | 17 | 284 | 3.2 | 8.0 | 0.00 | 0.74 | 0.46 | 93 | 1017.5 |
| 20260831081524 | 16 | 293 | 1.6 | 8.0 | 0.00 | 0.74 | 0.46 | 93 | 1017.5 |
| 20260831081018 | 16 | 297 | 3.2 | 8.0 | 0.00 | 0.74 | 0.46 | 93 | 1017.5 |
| 20260831080524 | 16 | 311 | 1.6 | 4.8 | 0.00 | 0.74 | 0.46 | 93 | 1017.5 |
| 20260831080018 | 16 | 291 | 3.2 | 9.7 | 0.00 | 0.74 | 0.46 | 94 | 1017.5 |
| 20260831075654 | 16 | 291 | 3.2 | 11.3 | 0.00 | 0.74 | 0.46 | 94 | 1017.5 |
| 20260831075018 | 16 | 302 | 1.6 | 8.0 | 0.00 | 0.74 | 0.46 | 94 | 1017.5 |
| 20260831074524 | 16 | 289 | 1.6 | 12.9 | 0.00 | 0.74 | 0.46 | 94 | 1017.5 |
| 20260831074018 | 16 | 296 | 1.6 | 8.0 | 0.00 | 0.74 | 0.46 | 94 | 1017.5 |
| 20260831073538 | 16 | 302 | 1.6 | 9.7 | 0.00 | 0.74 | 0.46 | 94 | 1017.5 |
| 20260831073032 | 16 | 308 | 1.6 | 4.8 | 0.00 | 0.74 | 0.46 | 95 | 1017.5 |
| 20260831072556 | 16 | 319 | 0.0 | 1.6 | 0.00 | 0.74 | 0.46 | 96 | 1016.5 |
| 20260831072020 | 16 | 304 | 1.6 | 9.7 | 0.00 | 0.74 | 0.46 | 96 | 1016.5 |
| 20260831071525 | 16 | 313 | 0.0 | 3.2 | 0.00 | 0.74 | 0.46 | 96 | 1016.5 |
| 20260831071019 | 16 | 308 | 1.6 | 3.2 | 0.00 | 0.74 | 0.46 | 96 | 1017.5 |
| 20260831070525 | 16 | 309 | 1.6 | 3.2 | 0.00 | 0.74 | 0.46 | 96 | 1017.5 |
| 20260831070019 | 16 | 309 | 1.6 | 8.0 | 0.00 | 0.74 | 0.46 | 96 | 1017.5 |
| 20260831065526 | 16 | 293 | 3.2 | 11.3 | 0.00 | 0.74 | 0.46 | 95 | 1017.6 |
| 20260831065019 | 16 | 295 | 1.6 | 9.7 | 0.00 | 0.74 | 0.46 | 95 | 1017.6 |
| 20260831064526 | 16 | 315 | 0.0 | 3.2 | 0.00 | 0.74 | 0.46 | 95 | 1017.6 |
| 20260831064020 | 16 | 311 | 1.6 | 3.2 | 0.00 | 0.74 | 0.46 | 95 | 1016.7 |
| 20260831063525 | 16 | 305 | 1.6 | 8.0 | 0.00 | 0.74 | 0.46 | 95 | 1016.6 |
| 20260831063020 | 16 | 295 | 3.2 | 11.3 | 0.00 | 0.74 | 0.46 | 95 | 1016.6 |
| 20260831062526 | 16 | 292 | 1.6 | 8.0 | 0.00 | 0.74 | 0.46 | 96 | 1016.6 |
| 20260831062020 | 16 | 313 | 1.6 | 3.2 | 0.00 | 0.74 | 0.46 | 96 | 1016.6 |
| 20260831061526 | 16 | 314 | 0.0 | 3.2 | 0.00 | 0.74 | 0.46 | 96 | 1016.6 |
| 20260831061020 | 16 | 301 | 1.6 | 9.7 | 0.00 | 0.74 | 0.46 | 96 | 1016.6 |
| 20260831060527 | 16 | 308 | 1.6 | 8.0 | 0.00 | 0.74 | 0.46 | 96 | 1016.6 |
| 20260831060050 | 17 | 316 | 0.0 | 3.2 | 0.00 | 0.74 | 0.46 | 96 | 1016.6 |
| 20260831055556 | 17 | 320 | 0.0 | 1.6 | 0.00 | 0.74 | 0.46 | 96 | 1017.4 |
| 20260831055050 | 16 | 0.0 | 0.0 | 0.00 | 0.74 | 0.46 | 98 | 1017.7 | |
| 20260831054526 | 16 | 0.0 | 0.0 | 0.00 | 0.74 | 0.46 | 99 | 1017.7 | |
| 20260831054050 | 16 | 0.0 | 0.0 | 0.00 | 0.74 | 0.46 | 98 | 1017.1 | |
| 20260831053526 | 16 | 0.0 | 0.0 | 0.00 | 0.74 | 0.46 | 99 | 1016.7 | |
| 20260831053050 | 15 | 319 | 0.0 | 0.0 | 0.00 | 0.74 | 0.46 | 99 | 1016.6 |
| 20260831052556 | 15 | 323 | 0.0 | 3.2 | 0.00 | 0.74 | 0.46 | 99 | 1016.7 |
| 20260831052020 | 15 | 299 | 1.6 | 4.8 | 0.00 | 0.74 | 0.46 | 99 | 1016.7 |
| 20260831051527 | 16 | 320 | 0.0 | 3.2 | 0.00 | 0.74 | 0.46 | 99 | 1016.7 |
| 20260831051021 | 16 | 317 | 1.6 | 3.2 | 0.00 | 0.74 | 0.46 | 99 | 1016.7 |
| 20260831050515 | 16 | 290 | 1.6 | 6.4 | 0.00 | 0.74 | 0.46 | 99 | 1016.7 |
| 20260831050021 | 16 | 303 | 0.0 | 3.2 | 0.00 | 0.74 | 0.46 | 99 | 1016.7 |
| 20260831045515 | 16 | 307 | 1.6 | 3.2 | 0.00 | 0.74 | 0.46 | 99 | 1016.7 |
| 20260831045051 | 16 | 285 | 1.6 | 3.2 | 0.00 | 0.74 | 0.46 | 99 | 1016.7 |
| 20260831044515 | 16 | 283 | 1.6 | 4.8 | 0.00 | 0.74 | 0.46 | 99 | 1016.7 |
| 20260831044021 | 16 | 283 | 1.6 | 3.2 | 0.00 | 0.74 | 0.46 | 99 | 1016.7 |
| 20260831043515 | 16 | 283 | 0.0 | 6.4 | 0.00 | 0.74 | 0.46 | 99 | 1016.7 |
| 20260831043021 | 16 | 283 | 0.0 | 3.2 | 0.00 | 0.74 | 0.46 | 99 | 1016.7 |
| 20260831042515 | 16 | 283 | 0.0 | 3.2 | 0.00 | 0.74 | 0.46 | 99 | 1016.8 |
| 20260831042021 | 16 | 283 | 0.0 | 0.0 | 0.00 | 0.74 | 0.46 | 99 | 1016.8 |
| 20260831041515 | 16 | 283 | 0.0 | 3.2 | 0.00 | 0.74 | 0.46 | 99 | 1016.8 |
| 20260831041022 | 16 | 283 | 0.0 | 4.8 | 0.00 | 0.74 | 0.46 | 99 | 1016.8 |
| 20260831040515 | 16 | 283 | 0.0 | 3.2 | 0.00 | 0.74 | 0.46 | 99 | 1016.8 |
| 20260831040022 | 16 | 283 | 0.0 | 3.2 | 0.00 | 0.74 | 0.46 | 99 | 1016.8 |
| 20260831035516 | 16 | 0.0 | 0.0 | 0.00 | 0.74 | 0.46 | 99 | 1016.8 | |
| 20260831035053 | 16 | 0.0 | 0.0 | 0.00 | 0.74 | 0.46 | 99 | 1016.8 | |
| 20260831034519 | 16 | 283 | 0.0 | 1.6 | 0.00 | 0.74 | 0.46 | 99 | 1016.8 |
| 20260831034025 | 16 | 283 | 0.0 | 3.2 | 0.00 | 0.74 | 0.46 | 99 | 1016.8 |
| 20260831033516 | 16 | 283 | 1.6 | 4.8 | 0.00 | 0.74 | 0.46 | 99 | 1016.8 |
| 20260831033023 | 16 | 282 | 0.0 | 3.2 | 0.00 | 0.74 | 0.46 | 99 | 1016.8 |
| 20260831032517 | 16 | 283 | 0.0 | 3.2 | 0.00 | 0.74 | 0.46 | 99 | 1016.8 |
| 20260831032036 | 16 | 283 | 0.0 | 3.2 | 0.00 | 0.74 | 0.46 | 99 | 1016.8 |
| 20260831031530 | 16 | 282 | 0.0 | 1.6 | 0.00 | 0.74 | 0.46 | 99 | 1016.8 |
| 20260831031024 | 16 | 283 | 0.0 | 1.6 | 0.00 | 0.74 | 0.46 | 99 | 1016.8 |
| 20260831030517 | 16 | 283 | 0.0 | 1.6 | 0.00 | 0.74 | 0.46 | 99 | 1016.8 |
| 20260831030022 | 16 | 283 | 0.0 | 1.6 | 0.00 | 0.74 | 0.46 | 99 | 1016.8 |
| 20260831025517 | 16 | 0.0 | 0.0 | 0.00 | 0.74 | 0.46 | 99 | 1016.8 | |
| 20260831025024 | 16 | 283 | 0.0 | 3.2 | 0.00 | 0.74 | 0.46 | 99 | 1016.8 |
| 20260831024518 | 16 | 283 | 0.0 | 1.6 | 0.00 | 0.74 | 0.46 | 99 | 1016.8 |
| 20260831024024 | 16 | 283 | 0.0 | 1.6 | 0.00 | 0.74 | 0.46 | 99 | 1016.8 |
| 20260831023616 | 16 | 0.0 | 0.0 | 0.00 | 0.74 | 0.46 | 99 | 1016.8 | |
| 20260831023053 | 16 | 0.0 | 0.0 | 0.00 | 0.74 | 0.46 | 99 | 1016.8 | |
| 20260831022617 | 16 | 283 | 0.0 | 1.6 | 0.00 | 0.74 | 0.46 | 99 | 1016.8 |
| 20260831022023 | 16 | 0.0 | 0.0 | 0.00 | 0.74 | 0.46 | 99 | 1015.9 | |
| 20260831021517 | 16 | 0.0 | 0.0 | 0.00 | 0.74 | 0.46 | 99 | 1015.8 | |
| 20260831021023 | 16 | 283 | 0.0 | 3.2 | 0.00 | 0.74 | 0.46 | 99 | 1015.8 |
| 20260831020517 | 16 | 0.0 | 0.0 | 0.00 | 0.74 | 0.46 | 99 | 1016.5 | |
| 20260831020023 | 16 | 284 | 0.0 | 3.2 | 0.00 | 0.74 | 0.46 | 99 | 1016.8 |
| 20260831015547 | 16 | 0.0 | 0.0 | 0.00 | 0.74 | 0.46 | 99 | 1016.8 | |
| 20260831015053 | 16 | 0.0 | 0.0 | 0.00 | 0.74 | 0.46 | 99 | 1016.8 | |
| 20260831014945 | 16 | 0.0 | 0.0 | 0.00 | 0.74 | 0.46 | 99 | 1015.8 | |
| 20260831014023 | 16 | 0.0 | 0.0 | 0.00 | 0.74 | 0.46 | 99 | 1015.8 | |
| 20260831013912 | 16 | 284 | 0.0 | 3.2 | 0.00 | 0.74 | 0.46 | 99 | 1015.8 |
| 20260831013024 | 16 | 284 | 0.0 | 0.0 | 0.00 | 0.74 | 0.46 | 99 | 1015.8 |
| 20260831012518 | 16 | 284 | 0.0 | 1.6 | 0.00 | 0.74 | 0.46 | 99 | 1015.8 |
| 20260831012024 | 16 | 283 | 0.0 | 1.6 | 0.00 | 0.74 | 0.46 | 99 | 1015.8 |
| 20260831011518 | 16 | 284 | 0.0 | 3.2 | 0.00 | 0.74 | 0.46 | 99 | 1015.8 |
| 20260831011024 | 16 | 283 | 0.0 | 1.6 | 0.00 | 0.74 | 0.46 | 99 | 1015.8 |
| 20260831010518 | 16 | 0.0 | 0.0 | 0.00 | 0.74 | 0.46 | 99 | 1015.8 | |
| 20260831010025 | 16 | 0.0 | 0.0 | 0.00 | 0.74 | 0.46 | 99 | 1015.8 | |
| 20260831005519 | 16 | 0.0 | 0.0 | 0.00 | 0.74 | 0.46 | 99 | 1015.8 | |
| 20260831005025 | 16 | 0.0 | 0.0 | 0.00 | 0.74 | 0.46 | 99 | 1015.8 | |
| 20260831004520 | 17 | 0.0 | 0.0 | 0.00 | 0.74 | 0.46 | 99 | 1015.8 | |
| 20260831004026 | 17 | 283 | 0.0 | 3.2 | 0.00 | 0.74 | 0.46 | 99 | 1015.8 |
| 20260831003550 | 17 | 283 | 0.0 | 1.6 | 0.00 | 0.74 | 0.46 | 99 | 1015.8 |
| 20260831003027 | 17 | 285 | 0.0 | 1.6 | 0.03 | 0.74 | 0.46 | 99 | 1015.8 |
| 20260831002521 | 17 | 285 | 0.0 | 3.2 | 0.03 | 0.74 | 0.46 | 99 | 1015.8 |
| 20260831002015 | 17 | 284 | 0.0 | 3.2 | 0.05 | 0.74 | 0.46 | 99 | 1015.8 |
| 20260831001521 | 17 | 286 | 0.0 | 1.6 | 0.05 | 0.74 | 0.46 | 99 | 1015.8 |
| 20260831001046 | 17 | 284 | 0.0 | 3.2 | 0.05 | 0.74 | 0.46 | 99 | 1015.8 |
| 20260831000522 | 17 | 284 | 0.0 | 0.0 | 0.05 | 0.74 | 0.46 | 99 | 1015.8 |
| 20260831000016 | 17 | 285 | 0.0 | 3.2 | 0.10 | 0.74 | 0.46 | 99 | 1015.8 |
| 20260830235553 | 17 | 286 | 0.0 | 1.6 | 0.18 | 0.74 | 0.46 | 99 | 1015.8 |
| 20260830235017 | 17 | 287 | 0.0 | 1.6 | 0.18 | 0.74 | 0.46 | 99 | 1015.8 |
| 20260830234523 | 17 | 286 | 0.0 | 1.6 | 0.20 | 0.74 | 0.46 | 99 | 1015.8 |
| 20260830234017 | 17 | 0.0 | 0.0 | 0.23 | 0.74 | 0.46 | 99 | 1015.8 | |
| 20260830233524 | 17 | 283 | 0.0 | 3.2 | 0.25 | 0.74 | 0.46 | 99 | 1015.8 |
| 20260830233218 | 17 | 285 | 0.0 | 1.6 | 0.30 | 0.71 | 0.43 | 99 | 1015.8 |
| 20260830232624 | 17 | 0.0 | 0.0 | 0.38 | 0.71 | 0.43 | 99 | 1015.8 | |
| 20260830232018 | 17 | 286 | 0.0 | 1.6 | 0.38 | 0.69 | 0.41 | 99 | 1015.8 |
| 20260830231525 | 17 | 286 | 0.0 | 1.6 | 0.38 | 0.69 | 0.41 | 99 | 1015.8 |
| 20260830231019 | 17 | 290 | 0.0 | 1.6 | 0.38 | 0.69 | 0.41 | 99 | 1015.8 |
| 20260830230525 | 17 | 285 | 0.0 | 3.2 | 0.38 | 0.69 | 0.41 | 99 | 1015.8 |
| 20260830230019 | 17 | 284 | 1.6 | 4.8 | 0.36 | 0.64 | 0.36 | 99 | 1015.8 |
| 20260830225526 | 17 | 284 | 1.6 | 8.0 | 0.28 | 0.56 | 0.28 | 99 | 1015.7 |
| 20260830225020 | 17 | 286 | 0.0 | 3.2 | 0.28 | 0.56 | 0.28 | 99 | 1015.7 |
| 20260830224526 | 17 | 285 | 0.0 | 3.2 | 0.28 | 0.53 | 0.25 | 99 | 1015.7 |
| 20260830224049 | 17 | 284 | 0.0 | 1.6 | 0.30 | 0.51 | 0.23 | 99 | 1015.7 |
| 20260830223526 | 17 | 283 | 0.0 | 1.6 | 0.33 | 0.48 | 0.20 | 99 | 1015.7 |
| 20260830223020 | 17 | 0.0 | 0.0 | 0.28 | 0.41 | 0.13 | 99 | 1015.7 | |
| 20260830222526 | 17 | 0.0 | 0.0 | 0.23 | 0.33 | 0.05 | 99 | 1015.7 | |
| 20260830222020 | 17 | 0.0 | 0.0 | 0.23 | 0.30 | 0.03 | 99 | 1015.7 | |
| 20260830221540 | 17 | 0.0 | 0.0 | 0.25 | 0.30 | 0.03 | 99 | 1015.7 | |
| 20260830221034 | 17 | 0.0 | 0.0 | 0.28 | 0.30 | 0.03 | 99 | 1015.7 | |
| 20260830220529 | 17 | 0.0 | 0.0 | 0.30 | 0.30 | 0.03 | 98 | 1015.7 | |
| 20260830220022 | 17 | 0.0 | 0.0 | 0.28 | 0.28 | 0.00 | 98 | 1015.7 | |
| 20260830215517 | 17 | 0.0 | 0.0 | 0.28 | 0.28 | 0.28 | 97 | 1015.7 | |
| 20260830215022 | 17 | 0.0 | 0.0 | 0.28 | 0.28 | 0.28 | 97 | 1015.7 | |
| 20260830214516 | 17 | 0.0 | 0.0 | 0.25 | 0.25 | 0.25 | 97 | 1015.7 | |
| 20260830214022 | 17 | 0.0 | 0.0 | 0.20 | 0.20 | 0.20 | 96 | 1015.7 | |
| 20260830213516 | 17 | 0.0 | 0.0 | 0.15 | 0.15 | 0.15 | 96 | 1015.7 | |
| 20260830213022 | 17 | 0.0 | 0.0 | 0.13 | 0.13 | 0.13 | 97 | 1015.7 | |
| 20260830212546 | 17 | 0.0 | 0.0 | 0.10 | 0.10 | 0.10 | 96 | 1015.7 | |
| 20260830212023 | 17 | 0.0 | 0.0 | 0.08 | 0.08 | 0.08 | 95 | 1015.7 | |
| 20260830211517 | 17 | 0.0 | 0.0 | 0.05 | 0.05 | 0.05 | 95 | 1015.7 | |
| 20260830211023 | 17 | 0.0 | 0.0 | 0.03 | 0.03 | 0.03 | 94 | 1015.7 | |
| 20260830210517 | 17 | 0.0 | 0.0 | 0.00 | 0.00 | 0.00 | 93 | 1015.7 | |
| 20260830210024 | 17 | 0.0 | 0.0 | 0.00 | 0.00 | 0.00 | 92 | 1015.7 | |
| 20260830205518 | 17 | 0.0 | 0.0 | 0.00 | 0.00 | 0.00 | 91 | 1015.7 | |
| 20260830205024 | 17 | 0.0 | 0.0 | 0.00 | 0.00 | 0.00 | 90 | 1015.7 | |
| 20260830204519 | 17 | 0.0 | 0.0 | 0.00 | 0.00 | 0.00 | 89 | 1015.3 | |
| 20260830204025 | 17 | 0.0 | 0.0 | 0.00 | 0.00 | 0.00 | 89 | 1014.6 | |
| 20260830203519 | 17 | 0.0 | 0.0 | 0.00 | 0.00 | 0.00 | 88 | 1014.6 | |
| 20260830203026 | 17 | 0.0 | 0.0 | 0.00 | 0.00 | 0.00 | 87 | 1014.6 | |
| 20260830202550 | 17 | 0.0 | 0.0 | 0.00 | 0.00 | 0.00 | 87 | 1014.6 | |
| 20260830202026 | 17 | 0.0 | 0.0 | 0.00 | 0.00 | 0.00 | 87 | 1014.6 | |
| 20260830201521 | 17 | 0.0 | 0.0 | 0.00 | 0.00 | 0.00 | 86 | 1014.6 | |
| 20260830201127 | 17 | 0.0 | 0.0 | 0.00 | 0.00 | 0.00 | 86 | 1014.6 | |
| 20260830200521 | 17 | 0.0 | 0.0 | 0.00 | 0.00 | 0.00 | 85 | 1014.6 | |
| 20260830200015 | 17 | 0.0 | 0.0 | 0.00 | 0.00 | 0.00 | 85 | 1014.6 | |
| 20260830195521 | 17 | 0.0 | 0.0 | 0.00 | 0.00 | 0.00 | 85 | 1014.6 | |
| 20260830195015 | 17 | 0.0 | 0.0 | 0.00 | 0.00 | 0.00 | 85 | 1014.6 | |
| 20260830194522 | 17 | 0.0 | 0.0 | 0.00 | 0.00 | 0.00 | 84 | 1014.6 | |
| 20260830194016 | 17 | 0.0 | 0.0 | 0.00 | 0.00 | 0.00 | 84 | 1014.6 | |
| 20260830193522 | 17 | 0.0 | 0.0 | 0.00 | 0.00 | 0.00 | 83 | 1014.6 | |
| 20260830193016 | 17 | 0.0 | 0.0 | 0.00 | 0.00 | 0.00 | 83 | 1014.6 | |
| 20260830192523 | 17 | 0.0 | 0.0 | 0.00 | 0.00 | 0.00 | 83 | 1014.6 | |
| 20260830192017 | 17 | 0.0 | 0.0 | 0.00 | 0.00 | 0.00 | 83 | 1014.6 | |
| 20260830191523 | 18 | 0.0 | 0.0 | 0.00 | 0.00 | 0.00 | 83 | 1014.6 | |
| 20260830191017 | 18 | 0.0 | 0.0 | 0.00 | 0.00 | 0.00 | 82 | 1014.6 | |
| 20260830190523 | 18 | 0.0 | 0.0 | 0.00 | 0.00 | 0.00 | 82 | 1014.6 | |
| 20260830190047 | 18 | 0.0 | 0.0 | 0.00 | 0.00 | 0.00 | 82 | 1014.6 | |
| 20260830185524 | 18 | 0.0 | 0.0 | 0.00 | 0.00 | 0.00 | 82 | 1014.6 | |
| 20260830185048 | 18 | 0.0 | 0.0 | 0.00 | 0.00 | 0.00 | 81 | 1014.6 | |
| 20260830184524 | 18 | 0.0 | 0.0 | 0.00 | 0.00 | 0.00 | 82 | 1014.6 | |
| 20260830184018 | 18 | 0.0 | 0.0 | 0.00 | 0.00 | 0.00 | 82 | 1014.6 | |
| 20260830183624 | 19 | 0.0 | 0.0 | 0.00 | 0.00 | 0.00 | 81 | 1014.6 | |
| 20260830183018 | 19 | 0.0 | 0.0 | 0.00 | 0.00 | 0.00 | 80 | 1014.6 | |
| 20260830182525 | 20 | 0.0 | 0.0 | 0.00 | 0.00 | 0.00 | 79 | 1014.6 | |
| 20260830182019 | 20 | 0.0 | 0.0 | 0.00 | 0.00 | 0.00 | 80 | 1014.6 | |
| 20260830181525 | 20 | 0.0 | 0.0 | 0.00 | 0.00 | 0.00 | 78 | 1014.6 | |
| 20260830181019 | 20 | 0.0 | 0.0 | 0.00 | 0.00 | 0.00 | 77 | 1014.6 | |
| 20260830180526 | 20 | 0.0 | 0.0 | 0.00 | 0.00 | 0.00 | 77 | 1014.7 | |
| 20260830180019 | 20 | 0.0 | 0.0 | 0.00 | 0.00 | 0.00 | 77 | 1014.7 | |
| 20260830175539 | 21 | 0.0 | 0.0 | 0.00 | 0.00 | 0.00 | 76 | 1014.7 | |
| 20260830175033 | 21 | 0.0 | 0.0 | 0.00 | 0.00 | 0.00 | 75 | 1014.7 | |
| 20260830174528 | 21 | 0.0 | 0.0 | 0.00 | 0.00 | 0.00 | 76 | 1014.7 | |
| 20260830174021 | 21 | 0.0 | 0.0 | 0.00 | 0.00 | 0.00 | 76 | 1014.7 | |
| 20260830173615 | 22 | 0.0 | 0.0 | 0.00 | 0.00 | 0.00 | 74 | 1014.7 | |
| 20260830173021 | 22 | 0.0 | 0.0 | 0.00 | 0.00 | 0.00 | 72 | 1014.7 | |
| 20260830172556 | 22 | 0.0 | 0.0 | 0.00 | 0.00 | 0.00 | 70 | 1014.8 | |
| 20260830172021 | 22 | 0.0 | 0.0 | 0.00 | 0.00 | 0.00 | 71 | 1014.8 | |
| 20260830171557 | 22 | 0.0 | 0.0 | 0.00 | 0.00 | 0.00 | 69 | 1014.8 | |
| 20260830171021 | 22 | 0.0 | 0.0 | 0.00 | 0.00 | 0.00 | 69 | 1014.8 | |
| 20260830170515 | 22 | 0.0 | 0.0 | 0.00 | 0.00 | 0.00 | 69 | 1014.8 | |
| 20260830170046 | 23 | 0.0 | 0.0 | 0.00 | 0.00 | 0.00 | 69 | 1014.8 | |
| 20260830165545 | 23 | 0.0 | 0.0 | 0.00 | 0.00 | 0.00 | 69 | 1014.8 | |
| 20260830165051 | 23 | 0.0 | 0.0 | 0.00 | 0.00 | 0.00 | 67 | 1014.8 | |
| 20260830164516 | 23 | 320 | 0.0 | 0.0 | 0.00 | 0.00 | 0.00 | 66 | 1014.8 |
| 20260830164021 | 23 | 0.0 | 0.0 | 0.00 | 0.00 | 0.00 | 63 | 1015.2 | |
| 20260830163515 | 23 | 0.0 | 0.0 | 0.00 | 0.00 | 0.00 | 61 | 1015.8 | |
| 20260830163022 | 23 | 0.0 | 0.0 | 0.00 | 0.00 | 0.00 | 61 | 1015.8 | |
| 20260830162516 | 24 | 306 | 0.0 | 3.2 | 0.00 | 0.00 | 0.00 | 59 | 1015.8 |
| 20260830162022 | 24 | 323 | 0.0 | 0.0 | 0.00 | 0.00 | 0.00 | 59 | 1015.8 |
| 20260830161517 | 24 | 324 | 0.0 | 1.6 | 0.00 | 0.00 | 0.00 | 58 | 1015.8 |
| 20260830161036 | 24 | 324 | 0.0 | 1.6 | 0.00 | 0.00 | 0.00 | 58 | 1015.8 |
| 20260830160530 | 24 | 324 | 0.0 | 1.6 | 0.00 | 0.00 | 0.00 | 57 | 1015.8 |
| 20260830160024 | 24 | 310 | 1.6 | 4.8 | 0.00 | 0.00 | 0.00 | 57 | 1015.8 |
| 20260830155518 | 25 | 304 | 1.6 | 3.2 | 0.00 | 0.00 | 0.00 | 55 | 1015.8 |
| 20260830155024 | 25 | 314 | 0.0 | 3.2 | 0.00 | 0.00 | 0.00 | 55 | 1015.8 |
| 20260830154518 | 25 | 308 | 1.6 | 3.2 | 0.00 | 0.00 | 0.00 | 55 | 1015.8 |
| 20260830154024 | 25 | 309 | 1.6 | 3.2 | 0.00 | 0.00 | 0.00 | 54 | 1015.9 |
| 20260830153519 | 25 | 310 | 0.0 | 3.2 | 0.00 | 0.00 | 0.00 | 54 | 1015.8 |
| 20260830153025 | 25 | 313 | 0.0 | 3.2 | 0.00 | 0.00 | 0.00 | 54 | 1015.8 |
| 20260830152519 | 25 | 313 | 1.6 | 3.2 | 0.00 | 0.00 | 0.00 | 54 | 1015.9 |
| 20260830152025 | 25 | 303 | 1.6 | 9.7 | 0.00 | 0.00 | 0.00 | 52 | 1015.9 |
| 20260830151549 | 25 | 307 | 1.6 | 3.2 | 0.00 | 0.00 | 0.00 | 52 | 1015.9 |
| 20260830151026 | 25 | 290 | 1.6 | 8.0 | 0.00 | 0.00 | 0.00 | 52 | 1015.9 |
| 20260830150520 | 25 | 304 | 1.6 | 8.0 | 0.00 | 0.00 | 0.00 | 53 | 1015.9 |